Location: Vesunti
(61.5000°N, 22.8333°E)
Time: 19:51:40
(UTC+00:00)

Cosmos 921 Rocket - Pass Details

Date: 17 February 2020
Orbit: 572 x 631 km, 75.8° (Epoch: 30 March)

Event Time Altitude Azimuth Distance (km) Brightness Sun altitude
Exits shadow 02:26:20 19° 343° (NNW) 1,523 5.1 -26.6°
Maximum altitude 02:29:17 44° 48° (NE) 875 4.2 -26.2°
Drops below altitude 10° 02:33:32 10° 121° (ESE) 1,982 6.1 -25.8°
Sets 02:35:51 0° 128° (SE) 2,875 6.9 -25.5°
